CW7693 Weather Reports


time (UTC)temp
F
wind
direction
speed
knots
gust
knots
rain 1hr
in
rain 24hr
in
rain mn
in
humidity
%
barometer
mb
20260510124506 70 290 1.7 7.0 0.00 0.00 0.00 39 1005.9
20260510123117 71 346 2.6 7.8 0.00 0.00 0.00 39 1006.1
20260510121502 71 351 3.5 8.7 0.00 0.00 0.00 38 1006.2
20260510114502 70 288 3.5 8.7 0.00 0.00 0.00 40 1006.4
20260510113102 70 5 3.5 6.1 0.00 0.00 0.00 40 1006.5
20260510111503 70 349 4.3 8.7 0.00 0.00 0.00 39 1006.6
20260510104507 70 5 3.5 7.8 0.00 0.00 0.00 36 1006.9
20260510103003 70 333 4.3 10.4 0.00 0.00 0.00 37 1007.0
20260510101609 71 327 3.5 7.8 0.00 0.00 0.00 38 1007.0
20260510100003 71 300 3.5 7.8 0.00 0.00 0.00 34 1007.2
20260510094602 70 313 0.9 5.2 0.00 0.00 0.00 39 1007.3
20260510093003 69 336 1.7 7.0 0.00 0.00 0.00 43 1007.5
20260510091605 68 301 2.6 6.1 0.00 0.00 0.00 49 1007.5
20260510090004 67 300 1.7 6.1 0.00 0.00 0.00 53 1007.7
20260510084605 65 360 2.6 4.3 0.00 0.00 0.00 56 1007.9
20260510083003 65 296 0.9 3.5 0.00 0.00 0.00 53 1008.0
20260510081603 65 319 0.0 3.5 0.00 0.00 0.00 54 1008.1
20260510080002 63 134 0.9 1.7 0.00 0.00 0.00 52 1008.3
20260510074603 60 135 0.0 2.6 0.00 0.00 0.00 60 1008.5
20260510073002 58 360 1.7 3.5 0.00 0.00 0.00 63 1008.5
20260510071602 57 150 1.7 3.5 0.00 0.00 0.00 68 1008.6
20260510070003 55 360 1.7 3.5 0.00 0.00 0.00 75 1008.7
20260510064603 52 360 2.6 5.2 0.00 0.00 0.00 77 1008.8
20260510063003 51 360 2.6 4.3 0.00 0.00 0.00 79 1009.1
20260510061606 51 360 1.7 3.5 0.00 0.00 0.00 78 1009.1
20260510060006 49 360 1.7 5.2 0.00 0.00 0.00 81 1009.4
20260510054617 48 360 2.6 5.2 0.00 0.00 0.00 83 1009.6
20260510053002 47 131 1.7 4.3 0.00 0.00 0.00 84 1009.8
20260510051603 47 155 1.7 4.3 0.00 0.00 0.00 84 1009.8
20260510050002 46 148 2.6 4.3 0.00 0.00 0.00 86 1009.9
20260510044604 45 168 2.6 5.2 0.00 0.00 0.00 86 1010.1
20260510043006 46 152 2.6 4.3 0.00 0.00 0.00 87 1010.1
20260510041637 45 142 2.6 5.2 0.00 0.00 0.00 87 1010.2
20260510040004 46 171 0.9 4.3 0.00 0.00 0.00 86 1010.4
20260510034607 46 155 1.7 3.5 0.00 0.00 0.00 86 1010.4
20260510033121 46 157 2.6 4.3 0.00 0.00 0.00 86 1010.5
20260510031502 46 169 1.7 5.2 0.00 0.00 0.00 86 1010.6
20260510024502 46 147 2.6 6.1 0.00 0.00 0.00 87 1010.6
20260510023102 46 140 3.5 5.2 0.00 0.00 0.00 87 1010.8
20260510021505 46 151 2.6 6.1 0.00 0.00 0.00 87 1010.8
20260510020112 47 169 2.6 5.2 0.00 0.00 0.00 86 1010.8
20260510014504 47 136 1.7 4.3 0.00 0.27 0.00 86 1010.9
20260510013106 47 141 1.7 5.2 0.00 0.27 0.00 86 1011.0
20260510011504 47 136 1.7 5.2 0.00 0.27 0.00 86 1011.0
20260510004503 48 136 3.5 6.1 0.00 0.27 0.00 86 1010.8
20260510003102 48 152 3.5 5.2 0.00 0.27 0.00 85 1010.9
20260510001505 49 138 2.6 6.1 0.00 0.27 0.00 84 1010.9
20260509234507 49 142 2.6 4.3 0.00 0.27 0.00 84 1011.3
20260509233102 50 146 2.6 6.1 0.00 0.27 0.00 83 1011.5
20260509231502 50 128 2.6 5.2 0.00 0.27 0.00 82 1011.7
20260509230103 50 153 1.7 6.1 0.00 0.27 0.00 82 1011.8
20260509224502 51 148 1.7 3.5 0.00 0.27 0.00 80 1011.9
20260509223104 52 145 0.9 4.3 0.00 0.27 0.00 80 1011.9
20260509221504 52 154 1.7 3.5 0.00 0.27 0.00 79 1012.0
20260509214503 53 146 1.7 3.5 0.00 0.27 0.27 78 1011.9
20260509213002 53 140 1.7 3.5 0.00 0.27 0.27 76 1011.9
20260509211602 54 155 1.7 3.5 0.00 0.27 0.27 76 1011.9
20260509210002 55 161 1.7 3.5 0.00 0.27 0.27 74 1011.9
20260509204603 56 167 0.0 0.0 0.00 0.27 0.27 72 1012.0
20260509203005 56 163 0.0 0.0 0.00 0.27 0.27 70 1012.0
20260509201603 57 180 0.9 2.6 0.00 0.27 0.27 68 1012.1
20260509200002 58 65 0.0 1.7 0.00 0.27 0.27 66 1012.1
20260509194602 59 360 0.9 2.6 0.00 0.27 0.27 64 1012.0
20260509193006 60 360 0.9 2.6 0.00 0.27 0.27 61 1012.0
20260509191603 62 360 0.0 1.7 0.00 0.27 0.27 60 1011.9
20260509190003 63 349 0.9 2.6 0.00 0.27 0.27 57 1011.7
20260509184602 64 119 0.0 1.7 0.00 0.27 0.27 54 1011.8
20260509183003 64 360 0.0 3.5 0.00 0.27 0.27 55 1011.7
20260509181603 65 360 2.6 4.3 0.00 0.27 0.27 52 1011.4
20260509180003 66 24 1.7 6.1 0.00 0.27 0.27 50 1011.3
20260509174602 67 313 1.7 4.3 0.00 0.27 0.27 49 1011.4
20260509173013 68 22 1.7 3.5 0.00 0.27 0.27 48 1011.4
20260509171607 68 13 3.5 7.0 0.00 0.27 0.27 45 1011.5
20260509170004 68 59 2.6 7.8 0.00 0.27 0.27 44 1011.4
20260509164607 69 306 3.5 7.0 0.00 0.27 0.27 45 1011.4
20260509163002 69 355 3.5 7.0 0.00 0.27 0.27 41 1011.4
20260509161602 70 331 3.5 7.0 0.00 0.27 0.27 41 1011.6
20260509160003 68 325 2.6 8.7 0.00 0.27 0.27 43 1011.7
20260509154602 69 32 3.5 8.7 0.00 0.27 0.27 44 1011.8
20260509153005 69 5 5.2 9.6 0.00 0.27 0.27 44 1012.1
20260509151626 69 355 3.5 7.0 0.00 0.27 0.27 43 1012.2
20260509150008 69 41 1.7 7.0 0.00 0.27 0.27 43 1012.3
20260509144604 68 15 2.6 7.8 0.00 0.27 0.27 43 1012.4
20260509143005 69 333 4.3 8.7 0.00 0.27 0.27 43 1012.6
20260509141605 71 347 1.7 8.7 0.00 0.27 0.27 42 1012.7
20260509140002 70 327 1.7 8.7 0.00 0.27 0.27 43 1012.9
20260509134604 70 281 2.6 8.7 0.00 0.27 0.27 44 1013.1
20260509133002 69 301 1.7 8.7 0.00 0.27 0.27 45 1013.3
20260509131608 70 15 2.6 6.1 0.00 0.27 0.27 44 1013.3
20260509130008 68 18 2.6 7.0 0.00 0.27 0.27 46 1013.5
20260509124603 68 332 1.7 6.1 0.00 0.27 0.27 48 1013.7